TimeCST,TemperatureF,Dew PointF,Humidity,Sea Level PressureIn,VisibilityMPH,Wind Direction,Wind SpeedMPH,Gust SpeedMPH,PrecipitationIn,Events,Conditions,WindDirDegrees,DateUTC
12:53 AM,35.1,28.9,78,30.10,10.0,ESE,6.9,-,N/A,,Overcast,110,2013-11-05 06:53:00
1:53 AM,35.1,28.0,76,30.08,10.0,ESE,8.1,-,N/A,,Overcast,110,2013-11-05 07:53:00
2:53 AM,34.0,28.0,79,30.07,10.0,ESE,6.9,-,N/A,,Overcast,110,2013-11-05 08:53:00
3:53 AM,35.1,28.0,76,30.04,10.0,ESE,10.4,-,N/A,,Overcast,110,2013-11-05 09:53:00
4:53 AM,36.0,28.9,76,30.04,10.0,ESE,9.2,-,N/A,,Overcast,120,2013-11-05 10:53:00
5:34 AM,33.8,30.2,87,30.02,6.0,ESE,10.4,-,0.04,Rain,Rain,110,2013-11-05 11:34:00
5:49 AM,33.8,30.2,87,30.02,9.0,ESE,8.1,-,0.06,Rain,Light Rain,110,2013-11-05 11:49:00
5:53 AM,34.0,30.9,89,30.06,8.0,ESE,9.2,-,0.06,Rain,Light Rain,120,2013-11-05 11:53:00
6:24 AM,33.8,30.2,87,30.03,5.0,ESE,6.9,-,0.04,Snow,Light Snow,120,2013-11-05 12:24:00
6:33 AM,33.8,30.2,87,30.02,1.8,ESE,6.9,-,0.05,Snow,Light Snow,110,2013-11-05 12:33:00
6:43 AM,33.8,30.2,87,30.01,2.5,ESE,8.1,-,0.07,Snow,Light Snow,110,2013-11-05 12:43:00
6:53 AM,32.0,30.9,96,30.07,1.8,ESE,9.2,-,0.08,Snow,Light Snow,110,2013-11-05 12:53:00
7:06 AM,32.0,30.2,93,30.01,2.5,East,8.1,-,0.01,Snow,Light Snow,100,2013-11-05 13:06:00
7:15 AM,33.8,30.2,87,30.01,4.0,East,10.4,-,0.01,Snow,Light Snow,100,2013-11-05 13:15:00
7:23 AM,33.8,30.2,87,30.01,4.0,East,10.4,-,0.02,Snow,Light Snow,100,2013-11-05 13:23:00
7:53 AM,33.1,30.9,92,30.06,3.0,East,12.7,-,0.02,Snow,Light Snow,100,2013-11-05 13:53:00
8:00 AM,33.8,30.2,87,30.00,2.5,East,13.8,-,0.01,Snow,Light Snow,100,2013-11-05 14:00:00
8:08 AM,33.8,32.0,93,30.00,3.0,East,11.5,-,0.01,Snow,Light Snow,100,2013-11-05 14:08:00
8:37 AM,33.8,32.0,93,29.99,9.0,East,16.1,21.9,0.02,Rain,Light Freezing Rain,100,2013-11-05 14:37:00
8:42 AM,33.8,32.0,93,30.00,9.0,East,15.0,21.9,0.02,Rain,Light Freezing Rain,100,2013-11-05 14:42:00
8:53 AM,34.0,32.0,92,30.05,10.0,East,12.7,-,0.02,Rain,Light Rain,100,2013-11-05 14:53:00
9:35 AM,33.8,32.0,93,29.98,8.0,East,12.7,-,0.00,Rain,Light Freezing Rain,80,2013-11-05 15:35:00
9:53 AM,35.1,32.0,89,30.04,6.0,East,10.4,-,0.01,Rain,Light Rain,80,2013-11-05 15:53:00
10:28 AM,33.8,32.0,93,30.00,2.0,East,5.8,-,0.01,Snow,Light Snow,80,2013-11-05 16:28:00
10:35 AM,33.8,32.0,93,30.00,1.2,East,8.1,-,0.02,Snow,Light Snow,80,2013-11-05 16:35:00
10:53 AM,33.1,30.9,92,30.06,0.8,ENE,9.2,-,0.05,Snow,Light Snow,70,2013-11-05 16:53:00
11:03 AM,33.8,30.2,87,30.00,1.0,ENE,5.8,-,0.01,Snow,Light Snow,60,2013-11-05 17:03:00
11:14 AM,33.8,30.2,87,30.00,1.2,NNE,4.6,-,0.02,Snow,Light Snow,30,2013-11-05 17:14:00
11:22 AM,33.8,30.2,87,30.01,1.0,NNW,5.8,-,0.02,Snow,Light Snow,340,2013-11-05 17:22:00
11:30 AM,33.8,30.2,87,30.01,0.8,NNW,8.1,-,0.03,Snow,Light Snow,330,2013-11-05 17:30:00
11:37 AM,33.8,30.2,87,30.01,1.0,NNW,8.1,-,0.04,Snow,Light Snow,340,2013-11-05 17:37:00
11:53 AM,33.1,30.9,92,30.07,1.0,NNW,6.9,-,0.07,Snow,Light Snow,330,2013-11-05 17:53:00
12:41 PM,33.8,30.2,87,30.00,0.8,NNW,11.5,-,0.05,Snow,Light Snow,340,2013-11-05 18:41:00
12:53 PM,33.1,30.9,92,30.06,0.8,North,10.4,-,0.06,Snow,Light Snow,350,2013-11-05 18:53:00
1:04 PM,33.8,30.2,87,30.00,0.8,NNW,11.5,-,0.01,Snow,Light Snow,340,2013-11-05 19:04:00
1:12 PM,33.8,30.2,87,30.00,1.0,NNW,10.4,-,0.02,Snow,Light Snow,340,2013-11-05 19:12:00
1:21 PM,33.8,30.2,87,30.00,1.2,NNW,10.4,-,0.02,Snow,Light Snow,340,2013-11-05 19:21:00
1:53 PM,33.1,30.9,92,30.06,1.5,NNW,9.2,-,0.04,Snow,Light Snow,340,2013-11-05 19:53:00
2:02 PM,33.8,30.2,87,30.00,1.5,NNW,9.2,-,0.00,Snow,Light Snow,340,2013-11-05 20:02:00
2:10 PM,33.8,30.2,87,30.00,1.2,NNW,10.4,-,0.00,Snow,Light Snow,340,2013-11-05 20:10:00
2:37 PM,33.8,30.2,87,30.01,0.8,North,9.2,-,0.02,Snow,Light Snow,350,2013-11-05 20:37:00
2:48 PM,33.8,30.2,87,30.02,1.2,NNW,10.4,-,0.02,Snow,Light Snow,340,2013-11-05 20:48:00
2:53 PM,33.1,30.9,92,30.08,1.8,North,10.4,-,0.02,Snow,Light Snow,350,2013-11-05 20:53:00
3:01 PM,33.8,30.2,87,30.02,1.2,North,9.2,-,0.01,Snow,Light Snow,360,2013-11-05 21:01:00
3:06 PM,33.8,30.2,87,30.03,1.5,NNW,8.1,-,0.01,Snow,Light Snow,340,2013-11-05 21:06:00
3:17 PM,33.8,30.2,87,30.03,1.0,North,13.8,-,0.01,Snow,Light Snow,350,2013-11-05 21:17:00
3:24 PM,32.0,30.2,93,30.02,0.8,North,10.4,-,0.01,Snow,Light Snow,350,2013-11-05 21:24:00
3:51 PM,32.0,30.2,93,30.05,1.0,North,9.2,-,0.03,Snow,Light Snow,350,2013-11-05 21:51:00
3:53 PM,32.0,30.0,92,30.11,1.0,North,6.9,-,0.03,Snow,Light Snow,350,2013-11-05 21:53:00
4:31 PM,32.0,30.2,93,30.06,1.2,NNW,8.1,-,0.01,Snow,Light Snow,340,2013-11-05 22:31:00
4:38 PM,32.0,30.2,93,30.07,2.0,NW,6.9,-,0.01,Snow,Light Snow,320,2013-11-05 22:38:00
4:49 PM,33.8,30.2,87,30.07,3.0,NNW,8.1,-,0.01,Snow,Light Snow,330,2013-11-05 22:49:00
4:53 PM,33.1,30.0,89,30.13,3.0,NNW,8.1,-,0.01,Snow,Light Snow,330,2013-11-05 22:53:00
5:18 PM,32.0,30.2,93,30.08,2.0,NW,8.1,-,0.00,Snow,Light Snow,320,2013-11-05 23:18:00
5:20 PM,32.0,30.2,93,30.08,2.0,NNW,10.4,-,0.00,Snow,Light Snow,330,2013-11-05 23:20:00
5:36 PM,32.0,30.2,93,30.08,3.0,NNW,6.9,-,0.00,Snow,Light Snow,330,2013-11-05 23:36:00
5:53 PM,32.0,30.0,92,30.15,9.0,NW,9.2,-,0.00,,Overcast,320,2013-11-05 23:53:00
6:03 PM,33.8,30.2,87,30.10,10.0,NW,9.2,-,N/A,,Overcast,310,2013-11-06 00:03:00
6:20 PM,33.8,30.2,87,30.10,10.0,NW,8.1,-,N/A,,Overcast,320,2013-11-06 00:20:00
6:53 PM,33.1,30.0,89,30.18,10.0,NNW,6.9,-,N/A,,Overcast,330,2013-11-06 00:53:00
7:53 PM,33.1,30.0,89,30.19,10.0,NNW,6.9,-,N/A,,Overcast,330,2013-11-06 01:53:00
8:53 PM,32.0,30.0,92,30.20,10.0,NNW,6.9,-,N/A,,Overcast,330,2013-11-06 02:53:00
9:18 PM,32.0,30.2,93,30.14,10.0,NW,5.8,-,N/A,,Overcast,310,2013-11-06 03:18:00
9:35 PM,32.0,30.2,93,30.15,10.0,NW,5.8,-,N/A,,Overcast,320,2013-11-06 03:35:00
9:53 PM,32.0,30.0,92,30.21,10.0,NNW,4.6,-,N/A,,Overcast,330,2013-11-06 03:53:00
10:30 PM,32.0,30.2,93,30.15,10.0,NW,4.6,-,N/A,,Overcast,320,2013-11-06 04:30:00
10:53 PM,30.9,28.9,92,30.21,10.0,NW,4.6,-,N/A,,Mostly Cloudy,320,2013-11-06 04:53:00
11:01 PM,30.2,28.4,93,30.14,10.0,NW,3.5,-,N/A,,Scattered Clouds,320,2013-11-06 05:01:00
11:24 PM,30.2,26.6,86,30.15,10.0,NW,4.6,-,N/A,,Mostly Cloudy,320,2013-11-06 05:24:00
11:53 PM,30.9,28.9,92,30.21,10.0,NW,6.9,-,N/A,,Overcast,320,2013-11-06 05:53:00